Flag for U.S.A. Weather past 2 weeks in Eau Claire, Wisconsin, U.S.A.

Now
54 °F

Sunny.


Feels Like: N/A
Forecast: 38 / 55 °F
Wind: N/A

Location: Eau Claire County Airport

Current Time: Oct 21, 2014 at 2:34:44 PM

Latest Report: Oct 21, 2014 at 1:56 PM


Visibility: 10 mi

Pressure: 30.22 "Hg

Humidity: 51%

Dew point: 36 °F

Location of Eau ClaireLocation

Historic Weather in Eau Claire — Graph

°F

Eau Claire temperature yesterday

Maximum temperature yesterday: 58 °F (at 11:56 AM)
Minimum temperature yesterday: 41 °F (at 11:56 PM)
Average temperature yesterday: 51 °F

Past Weeks' High & Low Weather Summary

 TemperatureHumidityPressure
High67 °F (Oct 16, 2:56 PM)100% (Oct 10, 7:56 AM)30.30 "Hg (Oct 10, 7:56 AM)
Low25 °F (Oct 10, 6:56 AM)29% (Oct 15, 4:56 PM)29.43 "Hg (Oct 6, 8:56 PM)
Average47 °F70%29.93 "Hg
* Reported Oct 6 12:56 PM — Oct 21 12:56 PM, Eau Claire, Weather by CustomWeather, © 2014

Note: Actual official high and low records may vary slightly from our data, if they occured in-between our weather recording intervals... More about our weather records

Advertising

Eau Claire weather history for previous 24 hours

 ConditionsComfort  
Time TempWeatherWind HumidityBarometerVisibility
12:56 PM
Oct 21
51 °FSunny.3 mph56%30.24 "Hg10 mi
11:56 AM48 °FSunny.No wind63%30.25 "Hg10 mi
10:56 AM46 °FPartly sunny.7 mph68%30.26 "Hg10 mi
9:56 AM43 °FOvercast.7 mph76%30.25 "Hg10 mi
8:56 AM41 °FScattered clouds.3 mph86%30.24 "Hg10 mi
7:56 AM36 °FClear.5 mph92%30.22 "Hg10 mi
6:56 AM36 °FClear.6 mph92%30.20 "Hg10 mi
5:56 AM36 °FClear.7 mph92%30.19 "Hg10 mi
4:56 AM34 °FFog.3 mph97%30.17 "Hg2 mi
3:56 AM35 °FFog.No wind96%30.15 "Hg1 mi
2:56 AM34 °FClear.3 mph97%30.13 "Hg10 mi
1:56 AM37 °FClear.6 mph93%30.12 "Hg10 mi
12:56 AM37 °FClear.3 mph93%30.11 "Hg10 mi
11:56 PM
Oct 20
41 °FClear.3 mph82%30.09 "Hg10 mi
10:56 PM45 °FClear.5 mph76%30.08 "Hg10 mi
9:56 PM46 °FPassing clouds.5 mph73%30.07 "Hg10 mi
8:56 PM48 °FPassing clouds.7 mph66%30.06 "Hg10 mi
7:56 PM51 °FOvercast.6 mph61%30.06 "Hg10 mi
6:56 PM51 °FOvercast.3 mph61%30.04 "Hg10 mi
5:56 PM53 °FScattered clouds.5 mph56%30.02 "Hg10 mi
4:56 PM56 °FSunny.12 mph51%30.00 "Hg10 mi
3:56 PM57 °FOvercast.10 mph51%29.98 "Hg10 mi
2:56 PM58 °FPartly sunny.13 mph50%29.96 "Hg10 mi
Weather by CustomWeather, © 2014

See weather overviewHow to use our weather pages